{"data":{"norad_id":46064,"intl_designator":"2020-055AP","name":"STARLINK-1583","alt_names":[],"object_type":"PAYLOAD","status":"ACTIVE","operator":null,"country":"US","launch_date":"2020-08-07","launch_site_code":"AFETR","launch_vehicle":null,"mission":null,"orbit_class":"UNKNOWN","rcs_meters":null,"size_class":null,"mass_kg":null,"dimensions":null,"purposes":["comms"],"wikipedia_slug":null,"has_3d_model":false,"image_url":null,"decayed_at":null,"tle_current":{"epoch":"2026-09-19T16:44:01.176576Z","epoch_age_seconds":80546,"freshness":"FRESH","line1":"1 46064U 20055AP  26262.69723584  .00001034  00000+0  45069-4 0  9999","line2":"2 46064  53.1576 291.5067 0001261  95.4459 264.6686 15.31701976338782","mean_motion":15.31701976,"eccentricity":0.0001261,"inclination_deg":53.1576,"raan_deg":291.5067,"arg_perigee_deg":95.4459,"mean_anomaly_deg":264.6686,"bstar":4.5069e-5,"rev_number":33878,"period_min":94.013066677665,"perigee_km":469.87046223248,"apogee_km":471.59774752513,"semimajor_km":6848.8711048788,"source":"CELESTRAK","updated_at":"2026-09-20T09:00:38.464051Z"}}}